Time,TemperatureF,DewpointF,PressureIn,WindDirection,WindDirectionDegrees,WindSpeedMPH,WindSpeedGustMPH,Humidity,HourlyPrecipIn,Conditions,Clouds,dailyrainin,SoftwareType,DateUTC
2013-08-08 00:00:00,66.4,60.4,30.15,SSW,211,0.0,3.0,81,0.00,,CLR,0.00,VWS V14.01,2013-08-08 04:00:00,
2013-08-08 00:01:00,66.4,60.4,30.15,SSE,148,4.0,4.0,81,0.00,,CLR,0.00,VWS V14.01,2013-08-08 04:01:00,
2013-08-08 00:06:00,66.5,60.5,30.15,SSW,207,7.0,9.0,81,0.00,,CLR,0.00,VWS V14.01,2013-08-08 04:06:00,
2013-08-08 00:10:00,66.6,60.6,30.15,SE,129,5.0,9.0,81,0.00,,BKN011,0.00,VWS V14.01,2013-08-08 04:10:00,
2013-08-08 00:11:00,66.6,60.6,30.15,SE,136,5.0,7.0,81,0.00,,CLR,0.00,VWS V14.01,2013-08-08 04:11:00,
2013-08-08 00:16:00,66.7,60.7,30.15,SE,138,0.0,7.0,81,0.00,,CLR,0.00,VWS V14.01,2013-08-08 04:16:00,
2013-08-08 00:20:00,66.6,60.9,30.15,SE,143,2.0,7.0,82,0.00,,BKN011,0.00,VWS V14.01,2013-08-08 04:20:00,
2013-08-08 00:21:00,66.6,60.9,30.15,ESE,115,4.0,4.0,82,0.00,,CLR,0.00,VWS V14.01,2013-08-08 04:21:00,
2013-08-08 00:26:00,66.6,60.9,30.15,SSE,162,5.0,7.0,82,0.00,,CLR,0.00,VWS V14.01,2013-08-08 04:26:00,
2013-08-08 00:30:00,66.6,60.9,30.15,SSE,149,1.0,7.0,82,0.00,,BKN011,0.00,VWS V14.01,2013-08-08 04:30:00,
2013-08-08 00:31:00,66.6,60.9,30.15,SE,131,4.0,5.0,82,0.00,,CLR,0.00,VWS V14.01,2013-08-08 04:31:00,
2013-08-08 00:36:00,66.6,60.9,30.15,SSW,199,0.0,5.0,82,0.00,,CLR,0.00,VWS V14.01,2013-08-08 04:36:00,
2013-08-08 00:40:00,66.6,61.3,30.14,SW,236,1.0,5.0,83,0.00,,BKN011,0.00,VWS V14.01,2013-08-08 04:40:00,
2013-08-08 00:41:00,66.6,61.3,30.14,SSE,153,2.0,2.0,83,0.00,,CLR,0.00,VWS V14.01,2013-08-08 04:41:00,
2013-08-08 00:46:00,66.6,61.6,30.14,SSW,195,0.0,6.0,84,0.00,,CLR,0.00,VWS V14.01,2013-08-08 04:46:00,
2013-08-08 00:50:00,66.6,61.6,30.14,SE,145,1.0,6.0,84,0.00,,BKN011,0.00,VWS V14.01,2013-08-08 04:50:00,
2013-08-08 00:51:00,66.6,61.6,30.14,SE,145,0.0,2.0,84,0.00,,CLR,0.00,VWS V14.01,2013-08-08 04:51:00,
2013-08-08 00:56:00,66.5,61.5,30.13,ESE,118,1.0,6.0,84,0.00,,CLR,0.00,VWS V14.01,2013-08-08 04:56:00,
2013-08-08 01:00:00,66.5,61.5,30.13,ESE,107,0.0,6.0,84,0.00,,BKN011,0.00,VWS V14.01,2013-08-08 05:00:00,
2013-08-08 01:01:00,66.5,61.5,30.13,ESE,113,1.0,4.0,84,0.00,,CLR,0.00,VWS V14.01,2013-08-08 05:01:00,
2013-08-08 01:06:00,66.6,61.6,30.13,SSE,160,0.0,5.0,84,0.00,,CLR,0.00,VWS V14.01,2013-08-08 05:06:00,
2013-08-08 01:10:00,66.6,61.6,30.13,SSW,195,3.0,7.0,84,0.00,,BKN011,0.00,VWS V14.01,2013-08-08 05:10:00,
2013-08-08 01:11:00,66.7,61.7,30.13,SW,214,3.0,5.0,84,0.00,,CLR,0.00,VWS V14.01,2013-08-08 05:11:00,
2013-08-08 01:16:00,66.7,61.7,30.13,SE,135,1.0,7.0,84,0.00,,CLR,0.00,VWS V14.01,2013-08-08 05:16:00,
2013-08-08 01:20:00,66.8,61.8,30.13,SSW,208,2.0,7.0,84,0.00,,BKN011,0.00,VWS V14.01,2013-08-08 05:20:00,
2013-08-08 01:21:00,66.8,61.8,30.13,South,178,2.0,3.0,84,0.00,,CLR,0.00,VWS V14.01,2013-08-08 05:21:00,
2013-08-08 01:26:00,66.8,61.8,30.14,SE,131,0.0,5.0,84,0.00,,CLR,0.00,VWS V14.01,2013-08-08 05:26:00,
2013-08-08 01:30:00,66.9,61.9,30.13,South,186,2.0,7.0,84,0.00,,BKN011,0.00,VWS V14.01,2013-08-08 05:30:00,
2013-08-08 01:31:00,67.0,62.0,30.13,SSE,149,2.0,6.0,84,0.00,,CLR,0.00,VWS V14.01,2013-08-08 05:31:00,
2013-08-08 01:36:00,67.1,61.8,30.13,SSW,211,3.0,6.0,83,0.00,,CLR,0.00,VWS V14.01,2013-08-08 05:36:00,
2013-08-08 01:40:00,67.1,62.1,30.13,SSE,167,0.0,6.0,84,0.00,,BKN011,0.00,VWS V14.01,2013-08-08 05:40:00,
2013-08-08 01:41:00,67.1,62.1,30.13,South,184,4.0,5.0,84,0.00,,CLR,0.00,VWS V14.01,2013-08-08 05:41:00,
2013-08-08 01:46:00,67.1,62.1,30.13,ESE,111,5.0,7.0,84,0.00,,CLR,0.00,VWS V14.01,2013-08-08 05:46:00,
2013-08-08 01:50:00,67.2,62.2,30.12,South,172,4.0,7.0,84,0.00,,BKN011,0.00,VWS V14.01,2013-08-08 05:50:00,
2013-08-08 01:51:00,67.2,62.2,30.12,SSW,193,4.0,8.0,84,0.00,,CLR,0.00,VWS V14.01,2013-08-08 05:51:00,
2013-08-08 01:56:00,67.3,62.3,30.12,SSE,147,4.0,8.0,84,0.00,,CLR,0.00,VWS V14.01,2013-08-08 05:56:00,
2013-08-08 02:00:00,67.3,62.3,30.12,ENE,74,2.0,8.0,84,0.00,,BKN011,0.00,VWS V14.01,2013-08-08 06:00:00,
2013-08-08 02:01:00,67.3,62.3,30.12,SE,134,5.0,7.0,84,0.00,,FEW060,0.00,VWS V14.01,2013-08-08 06:01:00,
2013-08-08 02:06:00,67.4,62.1,30.12,South,187,1.0,8.0,83,0.00,,FEW060,0.00,VWS V14.01,2013-08-08 06:06:00,
2013-08-08 02:10:00,67.5,62.5,30.12,SSW,210,0.0,8.0,84,0.00,,BKN011,0.00,VWS V14.01,2013-08-08 06:10:00,
2013-08-08 02:11:00,67.4,62.4,30.12,SSE,149,0.0,2.0,84,0.00,,FEW060,0.00,VWS V14.01,2013-08-08 06:11:00,
2013-08-08 02:16:00,67.5,62.5,30.12,SSW,199,1.0,7.0,84,0.00,,FEW060,0.00,VWS V14.01,2013-08-08 06:16:00,
2013-08-08 02:20:00,67.5,62.5,30.12,SSE,150,2.0,7.0,84,0.00,,BKN011,0.00,VWS V14.01,2013-08-08 06:20:00,
2013-08-08 02:21:00,67.5,62.5,30.12,SSW,196,1.0,3.0,84,0.00,,FEW060,0.00,VWS V14.01,2013-08-08 06:21:00,
2013-08-08 02:26:00,67.7,62.7,30.12,SSE,156,2.0,5.0,84,0.00,,FEW060,0.00,VWS V14.01,2013-08-08 06:26:00,
2013-08-08 02:30:00,67.7,62.7,30.12,SSW,193,4.0,6.0,84,0.00,,BKN011,0.00,VWS V14.01,2013-08-08 06:30:00,
2013-08-08 02:31:00,67.8,62.8,30.12,ESE,111,2.0,5.0,84,0.00,,FEW060,0.00,VWS V14.01,2013-08-08 06:31:00,
2013-08-08 02:36:00,67.9,62.9,30.12,SE,142,4.0,8.0,84,0.00,,FEW060,0.00,VWS V14.01,2013-08-08 06:36:00,
2013-08-08 02:40:00,68.0,63.0,30.12,South,169,3.0,8.0,84,0.00,,BKN011,0.00,VWS V14.01,2013-08-08 06:40:00,
2013-08-08 02:41:00,68.0,63.0,30.12,SE,132,2.0,3.0,84,0.00,,FEW060,0.00,VWS V14.01,2013-08-08 06:41:00,
2013-08-08 02:46:00,68.0,63.0,30.12,SW,215,3.0,6.0,84,0.00,,FEW060,0.00,VWS V14.01,2013-08-08 06:46:00,
2013-08-08 02:50:00,68.1,63.1,30.12,SSE,162,0.0,6.0,84,0.00,,BKN011,0.00,VWS V14.01,2013-08-08 06:50:00,
2013-08-08 02:51:00,68.1,63.1,30.12,SSE,159,5.0,6.0,84,0.00,,FEW060,0.00,VWS V14.01,2013-08-08 06:51:00,
2013-08-08 02:56:00,68.1,63.1,30.11,ESE,114,0.0,6.0,84,0.00,,FEW060,0.00,VWS V14.01,2013-08-08 06:56:00,
2013-08-08 03:00:00,68.2,63.2,30.11,ESE,118,2.0,9.0,84,0.00,,BKN011,0.00,VWS V14.01,2013-08-08 07:00:00,
2013-08-08 03:01:00,68.2,63.2,30.11,ESE,109,5.0,7.0,84,0.00,,OVC050,0.00,VWS V14.01,2013-08-08 07:01:00,
2013-08-08 03:06:00,68.2,63.2,30.11,SE,146,0.0,7.0,84,0.00,,OVC050,0.00,VWS V14.01,2013-08-08 07:06:00,
2013-08-08 03:10:00,68.2,63.5,30.12,South,173,3.0,7.0,85,0.00,,BKN011,0.00,VWS V14.01,2013-08-08 07:10:00,
2013-08-08 03:11:00,68.2,63.5,30.12,SSW,197,2.0,5.0,85,0.00,,OVC050,0.00,VWS V14.01,2013-08-08 07:11:00,
2013-08-08 03:16:00,68.3,63.6,30.11,SW,218,4.0,7.0,85,0.00,,OVC050,0.00,VWS V14.01,2013-08-08 07:16:00,
2013-08-08 03:20:00,68.3,63.6,30.11,SSE,153,3.0,7.0,85,0.00,,BKN011,0.00,VWS V14.01,2013-08-08 07:20:00,
2013-08-08 03:21:00,68.3,63.6,30.11,SE,136,0.0,4.0,85,0.00,,OVC050,0.00,VWS V14.01,2013-08-08 07:21:00,
2013-08-08 03:26:00,68.4,63.7,30.11,South,183,0.0,6.0,85,0.00,,OVC050,0.00,VWS V14.01,2013-08-08 07:26:00,
2013-08-08 03:30:00,68.3,63.6,30.10,East,97,4.0,6.0,85,0.00,,BKN011,0.00,VWS V14.01,2013-08-08 07:30:00,
2013-08-08 03:31:00,68.3,63.6,30.10,SE,142,3.0,5.0,85,0.00,,OVC050,0.00,VWS V14.01,2013-08-08 07:31:00,
2013-08-08 03:36:00,68.3,63.6,30.10,South,190,2.0,8.0,85,0.00,,OVC050,0.00,VWS V14.01,2013-08-08 07:36:00,
2013-08-08 03:40:00,68.4,63.7,30.10,SW,221,4.0,8.0,85,0.00,,BKN011,0.00,VWS V14.01,2013-08-08 07:40:00,
2013-08-08 03:41:00,68.4,63.7,30.10,ESE,111,2.0,7.0,85,0.00,,OVC050,0.00,VWS V14.01,2013-08-08 07:41:00,
2013-08-08 03:46:00,68.4,64.1,30.10,SE,145,1.0,8.0,86,0.00,,OVC050,0.00,VWS V14.01,2013-08-08 07:46:00,
2013-08-08 03:50:00,68.5,64.2,30.10,South,173,5.0,8.0,86,0.00,,BKN011,0.00,VWS V14.01,2013-08-08 07:50:00,
2013-08-08 03:51:00,68.4,64.1,30.10,SSW,212,2.0,6.0,86,0.00,,OVC050,0.00,VWS V14.01,2013-08-08 07:51:00,
2013-08-08 03:56:00,68.5,64.2,30.10,SE,146,1.0,8.0,86,0.00,,OVC050,0.00,VWS V14.01,2013-08-08 07:56:00,
2013-08-08 04:00:00,68.5,64.2,30.10,SSW,198,6.0,8.0,86,0.00,,BKN011,0.00,VWS V14.01,2013-08-08 08:00:00,
2013-08-08 04:01:00,68.5,64.2,30.10,SW,225,2.0,6.0,86,0.00,,OVC065,0.00,VWS V14.01,2013-08-08 08:01:00,
2013-08-08 04:06:00,68.5,64.2,30.10,SE,129,3.0,9.0,86,0.00,,OVC065,0.00,VWS V14.01,2013-08-08 08:06:00,
2013-08-08 04:10:00,68.5,64.2,30.10,South,172,3.0,9.0,86,0.00,,BKN011,0.00,VWS V14.01,2013-08-08 08:10:00,
2013-08-08 04:11:00,68.5,64.2,30.10,SSW,204,1.0,7.0,86,0.00,,OVC065,0.00,VWS V14.01,2013-08-08 08:11:00,
2013-08-08 04:16:00,68.5,64.2,30.10,SSE,147,1.0,9.0,86,0.00,,OVC065,0.00,VWS V14.01,2013-08-08 08:16:00,
2013-08-08 04:20:00,68.6,64.2,30.10,SSW,207,6.0,9.0,86,0.00,,BKN011,0.00,VWS V14.01,2013-08-08 08:20:00,
2013-08-08 04:21:00,68.6,64.6,30.10,SE,144,1.0,6.0,87,0.00,,OVC065,0.00,VWS V14.01,2013-08-08 08:21:00,
2013-08-08 04:26:00,68.6,64.6,30.10,South,191,1.0,8.0,87,0.00,,OVC065,0.00,VWS V14.01,2013-08-08 08:26:00,
2013-08-08 04:30:00,68.6,64.6,30.10,SSW,206,2.0,8.0,87,0.00,,BKN011,0.00,VWS V14.01,2013-08-08 08:30:00,
2013-08-08 04:31:00,68.6,64.2,30.10,South,186,7.0,7.0,86,0.00,,OVC065,0.00,VWS V14.01,2013-08-08 08:31:00,
2013-08-08 04:36:00,68.6,64.2,30.10,SSW,207,4.0,9.0,86,0.00,,OVC065,0.00,VWS V14.01,2013-08-08 08:36:00,
2013-08-08 04:40:00,68.7,64.3,30.10,SSE,165,4.0,9.0,86,0.00,,BKN011,0.00,VWS V14.01,2013-08-08 08:40:00,
2013-08-08 04:41:00,68.7,64.3,30.10,SSE,149,5.0,6.0,86,0.00,,OVC065,0.00,VWS V14.01,2013-08-08 08:41:00,
2013-08-08 04:46:00,68.7,64.3,30.10,SSW,198,1.0,7.0,86,0.00,,OVC065,0.00,VWS V14.01,2013-08-08 08:46:00,
2013-08-08 04:50:00,68.7,64.3,30.10,ESE,116,1.0,8.0,86,0.00,,BKN011,0.00,VWS V14.01,2013-08-08 08:50:00,
2013-08-08 04:51:00,68.8,64.4,30.10,SSW,203,5.0,5.0,86,0.00,,OVC065,0.00,VWS V14.01,2013-08-08 08:51:00,
2013-08-08 04:56:00,68.8,64.4,30.10,SSE,160,2.0,7.0,86,0.00,,OVC065,0.00,VWS V14.01,2013-08-08 08:56:00,
2013-08-08 05:00:00,68.8,64.4,30.10,South,179,9.0,9.0,86,0.00,,BKN011,0.00,VWS V14.01,2013-08-08 09:00:00,
2013-08-08 05:01:00,68.8,64.4,30.10,SSW,205,2.0,9.0,86,0.00,,OVC043,0.00,VWS V14.01,2013-08-08 09:01:00,
2013-08-08 05:06:00,68.8,64.4,30.09,South,189,4.0,9.0,86,0.00,,OVC043,0.00,VWS V14.01,2013-08-08 09:06:00,
2013-08-08 05:10:00,68.8,64.4,30.09,ESE,105,3.0,9.0,86,0.00,,BKN011,0.00,VWS V14.01,2013-08-08 09:10:00,
2013-08-08 05:11:00,68.8,64.4,30.09,South,191,2.0,5.0,86,0.00,,OVC043,0.00,VWS V14.01,2013-08-08 09:11:00,
2013-08-08 05:16:00,68.8,64.4,30.10,SW,233,3.0,8.0,86,0.00,,OVC043,0.00,VWS V14.01,2013-08-08 09:16:00,
2013-08-08 05:20:00,68.9,64.5,30.10,SSW,211,4.0,8.0,86,0.00,,BKN011,0.00,VWS V14.01,2013-08-08 09:20:00,
2013-08-08 05:21:00,68.9,64.6,30.10,SE,146,4.0,5.0,86,0.00,,OVC043,0.00,VWS V14.01,2013-08-08 09:21:00,
2013-08-08 05:26:00,68.9,64.2,30.10,SW,224,2.0,6.0,85,0.00,,OVC043,0.00,VWS V14.01,2013-08-08 09:26:00,
2013-08-08 05:30:00,68.9,64.2,30.10,WNW,288,4.0,6.0,85,0.00,,BKN011,0.00,VWS V14.01,2013-08-08 09:30:00,
2013-08-08 05:31:00,68.9,64.2,30.10,SSW,197,5.0,5.0,85,0.00,,OVC043,0.00,VWS V14.01,2013-08-08 09:31:00,
2013-08-08 05:36:00,69.0,64.3,30.10,South,181,4.0,6.0,85,0.00,,OVC043,0.00,VWS V14.01,2013-08-08 09:36:00,
2013-08-08 05:40:00,69.0,64.3,30.10,ESE,118,1.0,6.0,85,0.00,,BKN011,0.00,VWS V14.01,2013-08-08 09:40:00,
2013-08-08 05:41:00,69.0,64.3,30.10,SW,228,0.0,4.0,85,0.00,,OVC043,0.00,VWS V14.01,2013-08-08 09:41:00,
2013-08-08 05:46:00,69.0,64.3,30.10,SE,132,2.0,5.0,85,0.00,,OVC043,0.00,VWS V14.01,2013-08-08 09:46:00,
2013-08-08 05:50:00,69.0,64.3,30.09,SE,143,3.0,6.0,85,0.00,,BKN011,0.00,VWS V14.01,2013-08-08 09:50:00,
2013-08-08 05:51:00,69.0,64.0,30.09,SE,143,3.0,6.0,84,0.00,,OVC043,0.00,VWS V14.01,2013-08-08 09:51:00,
2013-08-08 05:56:00,69.1,64.1,30.10,SE,128,2.0,6.0,84,0.00,,OVC043,0.00,VWS V14.01,2013-08-08 09:56:00,
2013-08-08 06:00:00,69.1,64.1,30.10,SE,134,2.0,6.0,84,0.00,,BKN011,0.00,VWS V14.01,2013-08-08 10:00:00,
2013-08-08 06:01:00,69.1,64.1,30.10,SSE,166,5.0,6.0,84,0.00,,OVC050,0.00,VWS V14.01,2013-08-08 10:01:00,
2013-08-08 06:06:00,69.1,64.1,30.10,SW,236,2.0,7.0,84,0.00,,OVC050,0.00,VWS V14.01,2013-08-08 10:06:00,
2013-08-08 06:10:00,69.2,64.2,30.10,East,86,0.0,7.0,84,0.00,,BKN011,0.00,VWS V14.01,2013-08-08 10:10:00,
2013-08-08 06:11:00,69.2,64.2,30.10,SE,131,1.0,6.0,84,0.00,,OVC050,0.00,VWS V14.01,2013-08-08 10:11:00,
2013-08-08 06:16:00,69.2,63.8,30.10,SSE,156,1.0,6.0,83,0.00,,OVC050,0.00,VWS V14.01,2013-08-08 10:16:00,
2013-08-08 06:20:00,69.2,63.8,30.10,SSW,197,2.0,6.0,83,0.00,,BKN011,0.00,VWS V14.01,2013-08-08 10:20:00,
2013-08-08 06:21:00,69.2,63.8,30.10,SSW,200,4.0,5.0,83,0.00,,OVC050,0.00,VWS V14.01,2013-08-08 10:21:00,
2013-08-08 06:26:00,69.3,63.9,30.10,SSE,161,2.0,5.0,83,0.00,,OVC050,0.00,VWS V14.01,2013-08-08 10:26:00,
2013-08-08 06:30:00,69.3,63.6,30.10,SE,128,0.0,6.0,82,0.00,,BKN011,0.00,VWS V14.01,2013-08-08 10:30:00,
2013-08-08 06:31:00,69.3,63.6,30.10,South,184,5.0,5.0,82,0.00,,OVC050,0.00,VWS V14.01,2013-08-08 10:31:00,
2013-08-08 06:36:00,69.3,63.6,30.10,SE,136,2.0,9.0,82,0.00,,OVC050,0.00,VWS V14.01,2013-08-08 10:36:00,
2013-08-08 06:40:00,69.4,63.7,30.10,SW,222,1.0,9.0,82,0.00,,BKN011,0.00,VWS V14.01,2013-08-08 10:40:00,
2013-08-08 06:41:00,69.4,63.7,30.10,SW,221,4.0,4.0,82,0.00,,OVC050,0.00,VWS V14.01,2013-08-08 10:41:00,
2013-08-08 06:46:00,69.5,63.4,30.10,SSE,167,2.0,7.0,81,0.00,,OVC050,0.00,VWS V14.01,2013-08-08 10:46:00,
2013-08-08 06:50:00,69.5,63.8,30.10,SSE,162,2.0,7.0,82,0.00,,BKN011,0.00,VWS V14.01,2013-08-08 10:50:00,
2013-08-08 06:51:00,69.5,63.8,30.10,SE,131,6.0,6.0,82,0.00,,OVC050,0.00,VWS V14.01,2013-08-08 10:51:00,
2013-08-08 06:56:00,69.4,63.7,30.10,SE,136,0.0,8.0,82,0.00,,OVC050,0.00,VWS V14.01,2013-08-08 10:56:00,
2013-08-08 07:00:00,69.2,63.1,30.10,ESE,110,5.0,10.0,81,0.00,,BKN011,0.00,VWS V14.01,2013-08-08 11:00:00,
2013-08-08 07:01:00,69.1,63.0,30.10,South,172,4.0,8.0,81,0.00,,OVC035,0.00,VWS V14.01,2013-08-08 11:01:00,
2013-08-08 07:06:00,69.0,63.3,30.10,South,169,4.0,9.0,82,0.00,,OVC035,0.00,VWS V14.01,2013-08-08 11:06:00,
2013-08-08 07:10:00,69.0,63.3,30.10,SSW,208,1.0,9.0,82,0.00,,BKN011,0.00,VWS V14.01,2013-08-08 11:10:00,
2013-08-08 07:11:00,68.9,63.5,30.10,SSW,193,3.0,4.0,83,0.00,,OVC035,0.00,VWS V14.01,2013-08-08 11:11:00,
2013-08-08 07:16:00,68.9,63.5,30.10,SW,226,2.0,6.0,83,0.00,,OVC035,0.00,VWS V14.01,2013-08-08 11:16:00,
2013-08-08 07:20:00,68.8,63.8,30.11,SW,218,3.0,6.0,84,0.00,,BKN011,0.00,VWS V14.01,2013-08-08 11:20:00,
2013-08-08 07:21:00,68.8,63.8,30.10,South,191,2.0,5.0,84,0.00,,OVC035,0.00,VWS V14.01,2013-08-08 11:21:00,
2013-08-08 07:26:00,68.8,63.8,30.11,SSE,160,4.0,6.0,84,0.00,,OVC035,0.00,VWS V14.01,2013-08-08 11:26:00,
2013-08-08 07:30:00,68.9,63.9,30.11,SSW,193,4.0,6.0,84,0.00,,BKN011,0.00,VWS V14.01,2013-08-08 11:30:00,
2013-08-08 07:31:00,69.0,64.0,30.11,SE,146,4.0,7.0,84,0.00,,OVC035,0.00,VWS V14.01,2013-08-08 11:31:00,
2013-08-08 07:36:00,69.1,64.1,30.11,SE,128,3.0,7.0,84,0.00,,OVC035,0.00,VWS V14.01,2013-08-08 11:36:00,
2013-08-08 07:40:00,69.1,64.1,30.11,SSE,166,2.0,7.0,84,0.00,,BKN011,0.00,VWS V14.01,2013-08-08 11:40:00,
2013-08-08 07:41:00,69.1,64.1,30.11,SSE,167,1.0,4.0,84,0.00,,OVC035,0.00,VWS V14.01,2013-08-08 11:41:00,
2013-08-08 07:46:00,69.1,64.4,30.11,SSE,156,2.0,5.0,85,0.00,,OVC035,0.00,VWS V14.01,2013-08-08 11:46:00,
2013-08-08 07:50:00,69.1,64.4,30.11,ESE,103,1.0,5.0,85,0.00,,BKN011,0.00,VWS V14.01,2013-08-08 11:50:00,
2013-08-08 07:51:00,69.1,64.4,30.11,South,189,2.0,4.0,85,0.00,,OVC035,0.00,VWS V14.01,2013-08-08 11:51:00,
2013-08-08 07:56:00,69.2,64.5,30.11,SSE,153,2.0,6.0,85,0.00,,OVC035,0.00,VWS V14.01,2013-08-08 11:56:00,
2013-08-08 08:00:00,69.3,64.6,30.11,South,169,1.0,6.0,85,0.00,,BKN011,0.00,VWS V14.01,2013-08-08 12:00:00,
2013-08-08 08:01:00,69.3,64.6,30.11,SE,128,1.0,1.0,85,0.00,,BKN049,0.00,VWS V14.01,2013-08-08 12:01:00,
2013-08-08 08:06:00,69.4,64.4,30.11,SW,214,3.0,7.0,84,0.00,,BKN049,0.00,VWS V14.01,2013-08-08 12:06:00,
2013-08-08 08:10:00,69.6,64.6,30.11,SSW,212,3.0,7.0,84,0.00,,BKN011,0.00,VWS V14.01,2013-08-08 12:10:00,
2013-08-08 08:11:00,69.6,64.6,30.10,SW,221,4.0,7.0,84,0.00,,BKN049,0.00,VWS V14.01,2013-08-08 12:11:00,
2013-08-08 08:16:00,69.8,64.8,30.10,SW,218,1.0,9.0,84,0.00,,BKN049,0.00,VWS V14.01,2013-08-08 12:16:00,
2013-08-08 08:20:00,69.9,64.8,30.10,South,176,2.0,9.0,84,0.00,,BKN011,0.00,VWS V14.01,2013-08-08 12:20:00,
2013-08-08 08:21:00,70.0,64.9,30.10,South,188,2.0,5.0,84,0.00,,BKN049,0.00,VWS V14.01,2013-08-08 12:21:00,
2013-08-08 08:26:00,70.0,64.9,30.11,SW,232,2.0,7.0,84,0.00,,BKN049,0.00,VWS V14.01,2013-08-08 12:26:00,
2013-08-08 08:30:00,69.9,65.2,30.11,South,179,4.0,7.0,85,0.00,,BKN011,0.00,VWS V14.01,2013-08-08 12:30:00,
2013-08-08 08:31:00,69.9,65.2,30.11,WSW,247,0.0,4.0,85,0.00,,BKN049,0.00,VWS V14.01,2013-08-08 12:31:00,
2013-08-08 08:36:00,69.8,65.4,30.11,SW,217,5.0,7.0,86,0.01,,BKN049,0.01,VWS V14.01,2013-08-08 12:36:00,
2013-08-08 08:40:00,69.6,65.6,30.10,SE,125,2.0,7.0,87,0.01,,BKN011,0.01,VWS V14.01,2013-08-08 12:40:00,
2013-08-08 08:41:00,69.6,65.9,30.10,SSW,200,2.0,4.0,88,0.01,,BKN049,0.01,VWS V14.01,2013-08-08 12:41:00,
2013-08-08 08:46:00,69.5,66.1,30.10,WSW,256,0.0,5.0,89,0.01,,BKN049,0.01,VWS V14.01,2013-08-08 12:46:00,
2013-08-08 08:50:00,69.6,66.2,30.10,SSE,155,5.0,5.0,89,0.01,,BKN011,0.01,VWS V14.01,2013-08-08 12:50:00,
2013-08-08 08:51:00,69.7,66.3,30.10,SSE,165,4.0,5.0,89,0.01,,BKN049,0.01,VWS V14.01,2013-08-08 12:51:00,
2013-08-08 08:56:00,70.0,66.6,30.10,SW,225,0.0,8.0,89,0.01,,BKN049,0.01,VWS V14.01,2013-08-08 12:56:00,
2013-08-08 09:00:00,70.1,66.7,30.10,SSW,201,3.0,8.0,89,0.01,,BKN011,0.01,VWS V14.01,2013-08-08 13:00:00,
2013-08-08 09:01:00,70.2,66.8,30.10,South,186,5.0,10.0,89,0.01,,-RA,0.01,VWS V14.01,2013-08-08 13:01:00,
2013-08-08 09:06:00,70.4,67.0,30.10,SSE,165,8.0,10.0,89,0.01,,-RA,0.01,VWS V14.01,2013-08-08 13:06:00,
2013-08-08 09:10:00,70.6,67.2,30.10,SSW,193,5.0,11.0,89,0.01,,BKN011,0.01,VWS V14.01,2013-08-08 13:10:00,
2013-08-08 09:11:00,70.7,67.0,30.10,SSE,155,6.0,8.0,88,0.01,,-RA,0.01,VWS V14.01,2013-08-08 13:11:00,
2013-08-08 09:16:00,70.8,67.1,30.10,West,271,4.0,11.0,88,0.01,,-RA,0.01,VWS V14.01,2013-08-08 13:16:00,
2013-08-08 09:20:00,70.8,67.4,30.10,SW,225,3.0,11.0,89,0.01,,BKN011,0.01,VWS V14.01,2013-08-08 13:20:00,
2013-08-08 09:21:00,70.8,67.4,30.10,South,188,5.0,6.0,89,0.01,,-RA,0.01,VWS V14.01,2013-08-08 13:21:00,
2013-08-08 09:26:00,71.0,67.6,30.10,WSW,241,2.0,8.0,89,0.01,,-RA,0.01,VWS V14.01,2013-08-08 13:26:00,
2013-08-08 09:30:00,70.8,67.4,30.10,SW,235,2.0,9.0,89,0.01,,BKN011,0.01,VWS V14.01,2013-08-08 13:30:00,
2013-08-08 09:31:00,70.8,67.4,30.11,SE,134,6.0,10.0,89,0.01,,-RA,0.01,VWS V14.01,2013-08-08 13:31:00,
2013-08-08 09:36:00,70.8,67.4,30.10,South,174,3.0,11.0,89,0.01,,-RA,0.01,VWS V14.01,2013-08-08 13:36:00,
2013-08-08 09:40:00,70.9,67.8,30.10,SSW,211,0.0,11.0,90,0.01,,BKN011,0.01,VWS V14.01,2013-08-08 13:40:00,
2013-08-08 09:41:00,70.9,67.8,30.10,SSE,153,2.0,4.0,90,0.00,,-RA,0.01,VWS V14.01,2013-08-08 13:41:00,
2013-08-08 09:46:00,71.0,67.9,30.11,SSW,205,2.0,7.0,90,0.00,,-RA,0.01,VWS V14.01,2013-08-08 13:46:00,
2013-08-08 09:50:00,71.1,68.0,30.11,SSW,194,3.0,8.0,90,0.00,,BKN011,0.01,VWS V14.01,2013-08-08 13:50:00,
2013-08-08 09:51:00,71.1,68.0,30.11,ESE,115,2.0,5.0,90,0.00,,-RA,0.01,VWS V14.01,2013-08-08 13:51:00,
2013-08-08 09:56:00,71.3,68.2,30.10,SSE,165,4.0,9.0,90,0.00,,-RA,0.01,VWS V14.01,2013-08-08 13:56:00,
2013-08-08 10:00:00,71.6,68.5,30.11,SSW,195,3.0,9.0,90,0.00,,BKN011,0.01,VWS V14.01,2013-08-08 14:00:00,
2013-08-08 10:01:00,71.6,68.2,30.10,SW,235,5.0,10.0,89,0.00,,OVC040,0.01,VWS V14.01,2013-08-08 14:01:00,
2013-08-08 10:06:00,71.7,68.3,30.11,SSW,204,7.0,12.0,89,0.00,,OVC040,0.01,VWS V14.01,2013-08-08 14:06:00,
2013-08-08 10:10:00,71.8,68.4,30.11,SSW,197,2.0,14.0,89,0.00,,BKN011,0.01,VWS V14.01,2013-08-08 14:10:00,
2013-08-08 10:11:00,71.9,68.5,30.11,South,176,3.0,9.0,89,0.00,,OVC040,0.01,VWS V14.01,2013-08-08 14:11:00,
2013-08-08 10:16:00,72.1,68.7,30.11,SSW,193,8.0,10.0,89,0.00,,OVC040,0.01,VWS V14.01,2013-08-08 14:16:00,
2013-08-08 10:20:00,72.5,69.1,30.11,SSE,163,3.0,10.0,89,0.00,,BKN011,0.01,VWS V14.01,2013-08-08 14:20:00,
2013-08-08 10:21:00,72.6,68.8,30.11,WSW,239,9.0,10.0,88,0.00,,OVC040,0.01,VWS V14.01,2013-08-08 14:21:00,
2013-08-08 10:26:00,72.8,69.0,30.11,SW,224,8.0,11.0,88,0.00,,OVC040,0.01,VWS V14.01,2013-08-08 14:26:00,
2013-08-08 10:30:00,73.1,69.3,30.11,South,173,13.0,14.0,88,0.00,,BKN011,0.01,VWS V14.01,2013-08-08 14:30:00,
2013-08-08 10:31:00,73.2,68.8,30.11,West,266,9.0,13.0,86,0.00,,OVC040,0.01,VWS V14.01,2013-08-08 14:31:00,
2013-08-08 10:36:00,73.4,68.6,30.11,SSW,207,10.0,15.0,85,0.00,,OVC040,0.01,VWS V14.01,2013-08-08 14:36:00,
2013-08-08 10:40:00,73.5,68.0,30.11,SW,219,7.0,15.0,83,0.00,,BKN011,0.01,VWS V14.01,2013-08-08 14:40:00,
2013-08-08 10:41:00,73.5,68.0,30.11,WNW,284,8.0,13.0,83,0.00,,OVC040,0.01,VWS V14.01,2013-08-08 14:41:00,
2013-08-08 10:46:00,73.7,68.2,30.11,WSW,250,4.0,13.0,83,0.00,,OVC040,0.01,VWS V14.01,2013-08-08 14:46:00,
2013-08-08 10:50:00,73.8,68.3,30.10,West,259,8.0,13.0,83,0.00,,OVC038,0.01,VWS V14.01,2013-08-08 14:50:00,
2013-08-08 10:51:00,73.8,68.3,30.11,WNW,285,3.0,8.0,83,0.00,,OVC040,0.01,VWS V14.01,2013-08-08 14:51:00,
2013-08-08 10:56:00,73.8,68.3,30.10,SW,231,5.0,13.0,83,0.00,,OVC040,0.01,VWS V14.01,2013-08-08 14:56:00,
2013-08-08 11:00:00,73.7,67.9,30.11,SSE,155,5.0,15.0,82,0.00,,BKN011,0.01,VWS V14.01,2013-08-08 15:00:00,
2013-08-08 11:01:00,73.6,67.8,30.10,SE,145,2.0,11.0,82,0.00,,OVC039,0.01,VWS V14.01,2013-08-08 15:01:00,
2013-08-08 11:06:00,73.6,68.1,30.10,SW,225,9.0,11.0,83,0.00,,OVC039,0.01,VWS V14.01,2013-08-08 15:06:00,
2013-08-08 11:10:00,73.5,67.7,30.10,SSW,203,2.0,14.0,82,0.00,,BKN011,0.01,VWS V14.01,2013-08-08 15:10:00,
2013-08-08 11:11:00,73.5,67.7,30.10,WSW,250,7.0,8.0,82,0.00,,OVC039,0.01,VWS V14.01,2013-08-08 15:11:00,
2013-08-08 11:16:00,73.5,67.3,30.10,SW,228,8.0,11.0,81,0.00,,OVC039,0.01,VWS V14.01,2013-08-08 15:16:00,
2013-08-08 11:20:00,73.6,67.8,30.10,West,278,2.0,11.0,82,0.00,,BKN011,0.01,VWS V14.01,2013-08-08 15:20:00,
2013-08-08 11:21:00,73.7,67.5,30.10,SW,226,1.0,6.0,81,0.00,,OVC039,0.01,VWS V14.01,2013-08-08 15:21:00,
2013-08-08 11:26:00,74.4,67.8,30.10,SSW,212,7.0,13.0,80,0.00,,OVC039,0.01,VWS V14.01,2013-08-08 15:26:00,
2013-08-08 11:30:00,74.4,67.5,30.09,WSW,257,4.0,16.0,79,0.00,,BKN011,0.01,VWS V14.01,2013-08-08 15:30:00,
2013-08-08 11:31:00,74.5,67.9,30.09,WSW,245,17.0,17.0,80,0.00,,OVC039,0.01,VWS V14.01,2013-08-08 15:31:00,
2013-08-08 11:36:00,75.2,67.9,30.10,West,264,3.0,17.0,78,0.00,,OVC039,0.01,VWS V14.01,2013-08-08 15:36:00,
2013-08-08 11:40:00,75.8,67.7,30.10,SSW,201,7.0,17.0,76,0.00,,BKN011,0.01,VWS V14.01,2013-08-08 15:40:00,
2013-08-08 11:41:00,75.9,68.2,30.09,West,260,4.0,7.0,77,0.00,,OVC039,0.01,VWS V14.01,2013-08-08 15:41:00,
2013-08-08 11:46:00,76.2,67.7,30.09,West,280,4.0,11.0,75,0.00,,OVC039,0.01,VWS V14.01,2013-08-08 15:46:00,
2013-08-08 11:50:00,76.6,68.1,30.09,SSW,201,7.0,12.0,75,0.00,,BKN011,0.01,VWS V14.01,2013-08-08 15:50:00,
2013-08-08 11:51:00,76.7,68.2,30.09,SW,232,9.0,9.0,75,0.00,,OVC039,0.01,VWS V14.01,2013-08-08 15:51:00,
2013-08-08 11:56:00,76.6,68.1,30.09,South,179,5.0,14.0,75,0.00,,OVC039,0.01,VWS V14.01,2013-08-08 15:56:00,
2013-08-08 12:00:00,77.0,68.5,30.09,SSE,149,5.0,14.0,75,0.00,,BKN011,0.01,VWS V14.01,2013-08-08 16:00:00,
2013-08-08 12:01:00,77.0,68.1,30.09,SE,142,5.0,14.0,74,0.00,,OVC039,0.01,VWS V14.01,2013-08-08 16:01:00,
2013-08-08 12:06:00,77.0,68.1,30.09,SSE,167,9.0,16.0,74,0.00,,OVC039,0.01,VWS V14.01,2013-08-08 16:06:00,
2013-08-08 12:10:00,76.5,68.0,30.09,West,271,10.0,16.0,75,0.00,,BKN011,0.01,VWS V14.01,2013-08-08 16:10:00,
2013-08-08 12:11:00,76.4,67.9,30.09,SW,222,4.0,18.0,75,0.00,,BKN024,0.01,VWS V14.01,2013-08-08 16:11:00,
2013-08-08 12:16:00,75.9,67.4,30.09,WSW,253,7.0,18.0,75,0.00,,BKN024,0.01,VWS V14.01,2013-08-08 16:16:00,
2013-08-08 12:20:00,75.3,66.8,30.09,WSW,243,12.0,18.0,75,0.00,,BKN011,0.01,VWS V14.01,2013-08-08 16:20:00,
2013-08-08 12:21:00,75.2,66.7,30.09,West,269,3.0,12.0,75,0.00,,BKN024,0.01,VWS V14.01,2013-08-08 16:21:00,
2013-08-08 12:26:00,74.9,66.4,30.09,South,183,9.0,16.0,75,0.00,,BKN024,0.01,VWS V14.01,2013-08-08 16:26:00,
2013-08-08 12:30:00,75.0,66.9,30.09,WNW,301,6.0,16.0,76,0.00,,BKN011,0.01,VWS V14.01,2013-08-08 16:30:00,
2013-08-08 12:31:00,75.2,67.1,30.09,WSW,248,7.0,9.0,76,0.00,,BKN024,0.01,VWS V14.01,2013-08-08 16:31:00,
2013-08-08 12:36:00,75.5,67.4,30.09,WNW,297,9.0,19.0,76,0.00,,BKN024,0.01,VWS V14.01,2013-08-08 16:36:00,
2013-08-08 12:40:00,75.7,67.6,30.09,West,264,10.0,19.0,76,0.00,,BKN011,0.01,VWS V14.01,2013-08-08 16:40:00,
2013-08-08 12:41:00,75.7,67.6,30.09,SW,226,10.0,10.0,76,0.00,,BKN024,0.01,VWS V14.01,2013-08-08 16:41:00,
2013-08-08 12:46:00,75.8,67.7,30.09,West,276,5.0,18.0,76,0.00,,BKN024,0.01,VWS V14.01,2013-08-08 16:46:00,
2013-08-08 12:50:00,76.0,67.5,30.09,SSE,153,3.0,19.0,75,0.00,,BKN011,0.01,VWS V14.01,2013-08-08 16:50:00,
2013-08-08 12:51:00,76.0,67.9,30.09,WSW,243,6.0,10.0,76,0.00,,BKN024,0.01,VWS V14.01,2013-08-08 16:51:00,
2013-08-08 12:56:00,75.8,68.1,30.08,SSW,208,8.0,16.0,77,0.00,,BKN024,0.01,VWS V14.01,2013-08-08 16:56:00,
2013-08-08 13:00:00,76.1,68.4,30.08,West,259,8.0,16.0,77,0.00,,BKN011,0.01,VWS V14.01,2013-08-08 17:00:00,
2013-08-08 13:01:00,76.2,68.1,30.08,WSW,240,13.0,15.0,76,0.00,,BKN024,0.01,VWS V14.01,2013-08-08 17:01:00,
2013-08-08 13:06:00,76.5,68.0,30.08,South,184,4.0,17.0,75,0.00,,BKN024,0.01,VWS V14.01,2013-08-08 17:06:00,
2013-08-08 13:10:00,76.8,68.3,30.08,SSE,149,8.0,17.0,75,0.00,,OVC038,0.01,VWS V14.01,2013-08-08 17:10:00,
2013-08-08 13:11:00,76.8,68.3,30.08,WSW,255,7.0,13.0,75,0.00,,BKN024,0.01,VWS V14.01,2013-08-08 17:11:00,
2013-08-08 13:16:00,77.1,68.6,30.09,South,172,5.0,16.0,75,0.00,,BKN024,0.01,VWS V14.01,2013-08-08 17:16:00,
2013-08-08 13:20:00,77.0,68.5,30.08,SSE,167,7.0,16.0,75,0.00,,BKN011,0.01,VWS V14.01,2013-08-08 17:20:00,
2013-08-08 13:21:00,77.0,68.5,30.08,West,276,8.0,10.0,75,0.00,,BKN024,0.01,VWS V14.01,2013-08-08 17:21:00,
2013-08-08 13:26:00,76.6,68.1,30.09,West,280,6.0,14.0,75,0.00,,BKN024,0.01,VWS V14.01,2013-08-08 17:26:00,
2013-08-08 13:30:00,76.6,68.1,30.09,NW,318,3.0,15.0,75,0.00,,BKN011,0.01,VWS V14.01,2013-08-08 17:30:00,
2013-08-08 13:31:00,76.7,68.6,30.09,SW,232,5.0,10.0,76,0.00,,BKN024,0.01,VWS V14.01,2013-08-08 17:31:00,
2013-08-08 13:36:00,76.3,68.2,30.09,WNW,285,5.0,16.0,76,0.00,,BKN024,0.01,VWS V14.01,2013-08-08 17:36:00,
2013-08-08 13:40:00,76.2,68.1,30.09,SW,235,11.0,16.0,76,0.00,,OVC038,0.01,VWS V14.01,2013-08-08 17:40:00,
2013-08-08 13:41:00,76.2,68.5,30.08,West,278,7.0,11.0,77,0.00,,BKN024,0.01,VWS V14.01,2013-08-08 17:41:00,
2013-08-08 13:46:00,76.5,68.4,30.09,West,259,8.0,16.0,76,0.00,,BKN024,0.01,VWS V14.01,2013-08-08 17:46:00,
2013-08-08 13:50:00,76.4,69.0,30.08,SSE,155,2.0,16.0,78,0.00,,BKN011,0.01,VWS V14.01,2013-08-08 17:50:00,
2013-08-08 13:51:00,76.6,68.9,30.09,SE,146,8.0,12.0,77,0.00,,BKN024,0.01,VWS V14.01,2013-08-08 17:51:00,
2013-08-08 13:56:00,76.7,68.9,30.08,SW,215,8.0,14.0,77,0.00,,BKN024,0.01,VWS V14.01,2013-08-08 17:56:00,
2013-08-08 14:00:00,76.6,68.9,30.09,SW,215,11.0,14.0,77,0.00,,BKN011,0.01,VWS V14.01,2013-08-08 18:00:00,
2013-08-08 14:01:00,76.7,69.3,30.09,South,176,7.0,12.0,78,0.00,,BKN022,0.01,VWS V14.01,2013-08-08 18:01:00,
2013-08-08 14:06:00,77.1,69.3,30.09,SW,217,8.0,12.0,77,0.00,,BKN022,0.01,VWS V14.01,2013-08-08 18:06:00,
2013-08-08 14:10:00,77.1,69.7,30.09,SSW,193,4.0,15.0,78,0.00,,BKN011,0.01,VWS V14.01,2013-08-08 18:10:00,
2013-08-08 14:11:00,77.2,69.1,30.09,SSW,201,9.0,12.0,76,0.00,,BKN022,0.01,VWS V14.01,2013-08-08 18:11:00,
2013-08-08 14:16:00,77.2,69.1,30.09,WSW,255,6.0,14.0,76,0.00,,BKN022,0.01,VWS V14.01,2013-08-08 18:16:00,
2013-08-08 14:20:00,77.1,69.3,30.09,West,271,4.0,14.0,77,0.00,,BKN011,0.01,VWS V14.01,2013-08-08 18:20:00,
2013-08-08 14:21:00,77.2,69.1,30.08,SSW,208,7.0,12.0,76,0.00,,BKN022,0.01,VWS V14.01,2013-08-08 18:21:00,
2013-08-08 14:26:00,77.4,69.2,30.09,South,171,6.0,12.0,76,0.00,,BKN022,0.01,VWS V14.01,2013-08-08 18:26:00,
2013-08-08 14:30:00,77.4,69.2,30.09,ENE,68,3.0,12.0,76,0.00,,BKN011,0.01,VWS V14.01,2013-08-08 18:30:00,
2013-08-08 14:31:00,77.6,69.4,30.08,SSW,195,3.0,8.0,76,0.00,,BKN022,0.01,VWS V14.01,2013-08-08 18:31:00,
2013-08-08 14:36:00,77.7,69.2,30.08,WSW,254,4.0,12.0,75,0.00,,BKN022,0.01,VWS V14.01,2013-08-08 18:36:00,
2013-08-08 14:40:00,77.7,69.5,30.09,SSW,192,4.0,12.0,76,0.00,,BKN011,0.01,VWS V14.01,2013-08-08 18:40:00,
2013-08-08 14:41:00,77.6,69.4,30.09,WSW,240,6.0,13.0,76,0.00,,BKN022,0.01,VWS V14.01,2013-08-08 18:41:00,
2013-08-08 14:46:00,77.6,69.1,30.09,West,266,5.0,13.0,75,0.00,,BKN022,0.01,VWS V14.01,2013-08-08 18:46:00,
2013-08-08 14:50:00,77.5,69.3,30.09,SSW,207,5.0,13.0,76,0.00,,BKN011,0.01,VWS V14.01,2013-08-08 18:50:00,
2013-08-08 14:51:00,77.5,69.3,30.09,SSE,167,8.0,8.0,76,0.00,,BKN022,0.01,VWS V14.01,2013-08-08 18:51:00,
2013-08-08 14:56:00,77.6,69.4,30.09,ESE,114,10.0,10.0,76,0.00,,BKN022,0.01,VWS V14.01,2013-08-08 18:56:00,
2013-08-08 15:00:00,77.3,69.2,30.09,South,184,5.0,16.0,76,0.00,,BKN011,0.01,VWS V14.01,2013-08-08 19:00:00,
2013-08-08 15:01:00,77.1,69.3,30.09,SW,233,9.0,9.0,77,0.00,,BKN022,0.01,VWS V14.01,2013-08-08 19:01:00,
2013-08-08 15:06:00,76.9,69.2,30.09,WNW,288,5.0,12.0,77,0.00,,BKN022,0.01,VWS V14.01,2013-08-08 19:06:00,
2013-08-08 15:10:00,77.0,69.6,30.09,SSE,155,12.0,14.0,78,0.00,,BKN011,0.01,VWS V14.01,2013-08-08 19:10:00,
2013-08-08 15:11:00,77.1,69.3,30.09,West,278,1.0,13.0,77,0.00,,BKN022,0.01,VWS V14.01,2013-08-08 19:11:00,
2013-08-08 15:16:00,77.4,69.2,30.09,WSW,245,5.0,13.0,76,0.00,,BKN022,0.01,VWS V14.01,2013-08-08 19:16:00,
2013-08-08 15:20:00,77.6,69.8,30.09,WSW,237,3.0,13.0,77,0.00,,BKN011,0.01,VWS V14.01,2013-08-08 19:20:00,
2013-08-08 15:21:00,77.7,69.9,30.09,SW,236,10.0,10.0,77,0.00,,BKN022,0.01,VWS V14.01,2013-08-08 19:21:00,
2013-08-08 15:26:00,77.4,69.2,30.09,SSW,204,12.0,13.0,76,0.00,,BKN022,0.01,VWS V14.01,2013-08-08 19:26:00,
2013-08-08 15:30:00,77.3,69.5,30.09,SW,222,6.0,13.0,77,0.00,,BKN011,0.01,VWS V14.01,2013-08-08 19:30:00,
2013-08-08 15:31:00,77.4,69.6,30.09,South,186,6.0,14.0,77,0.00,,BKN022,0.01,VWS V14.01,2013-08-08 19:31:00,
2013-08-08 15:36:00,77.4,69.2,30.08,SSW,198,9.0,15.0,76,0.00,,BKN022,0.01,VWS V14.01,2013-08-08 19:36:00,
2013-08-08 15:40:00,77.2,69.8,30.08,WNW,285,4.0,16.0,78,0.00,,BKN011,0.01,VWS V14.01,2013-08-08 19:40:00,
2013-08-08 15:41:00,77.0,68.9,30.09,SW,232,10.0,14.0,76,0.00,,BKN022,0.01,VWS V14.01,2013-08-08 19:41:00,
2013-08-08 15:46:00,76.9,69.2,30.08,SW,225,1.0,14.0,77,0.00,,BKN022,0.01,VWS V14.01,2013-08-08 19:46:00,
2013-08-08 15:50:00,77.1,69.7,30.08,WSW,242,3.0,14.0,78,0.00,,BKN011,0.01,VWS V14.01,2013-08-08 19:50:00,
2013-08-08 15:51:00,77.2,69.4,30.08,WNW,285,2.0,7.0,77,0.00,,BKN022,0.01,VWS V14.01,2013-08-08 19:51:00,
2013-08-08 15:56:00,77.5,69.3,30.08,SW,221,9.0,14.0,76,0.00,,BKN022,0.01,VWS V14.01,2013-08-08 19:56:00,
2013-08-08 16:00:00,77.0,69.2,30.08,SW,226,7.0,15.0,77,0.00,,BKN011,0.01,VWS V14.01,2013-08-08 20:00:00,
2013-08-08 16:01:00,76.9,68.8,30.07,SW,233,9.0,14.0,76,0.00,,BKN025,0.01,VWS V14.01,2013-08-08 20:01:00,
2013-08-08 16:06:00,76.3,68.9,30.07,SSW,197,7.0,15.0,78,0.00,,BKN025,0.01,VWS V14.01,2013-08-08 20:06:00,
2013-08-08 16:10:00,76.6,68.9,30.08,SW,215,2.0,15.0,77,0.00,,BKN011,0.01,VWS V14.01,2013-08-08 20:10:00,
2013-08-08 16:11:00,76.7,68.9,30.08,SE,128,3.0,11.0,77,0.00,,BKN025,0.01,VWS V14.01,2013-08-08 20:11:00,
2013-08-08 16:16:00,76.4,68.3,30.08,South,184,4.0,18.0,76,0.00,,BKN025,0.01,VWS V14.01,2013-08-08 20:16:00,
2013-08-08 16:20:00,76.2,68.8,30.08,South,187,9.0,18.0,78,0.00,,BKN011,0.01,VWS V14.01,2013-08-08 20:20:00,
2013-08-08 16:21:00,76.1,68.4,30.08,West,270,1.0,11.0,77,0.00,,SCT020,0.01,VWS V14.01,2013-08-08 20:21:00,
2013-08-08 16:26:00,76.1,68.4,30.08,SW,228,12.0,13.0,77,0.00,,SCT020,0.01,VWS V14.01,2013-08-08 20:26:00,
2013-08-08 16:30:00,76.0,68.3,30.08,SW,236,7.0,13.0,77,0.00,,BKN011,0.01,VWS V14.01,2013-08-08 20:30:00,
2013-08-08 16:31:00,76.1,68.4,30.08,SSE,149,7.0,11.0,77,0.00,,SCT020,0.01,VWS V14.01,2013-08-08 20:31:00,
2013-08-08 16:36:00,76.1,68.8,30.07,South,184,7.0,17.0,78,0.00,,SCT020,0.01,VWS V14.01,2013-08-08 20:36:00,
2013-08-08 16:40:00,76.2,68.5,30.07,SW,232,3.0,17.0,77,0.00,,BKN011,0.01,VWS V14.01,2013-08-08 20:40:00,
2013-08-08 16:41:00,76.2,68.1,30.07,SW,221,15.0,15.0,76,0.00,,SCT020,0.01,VWS V14.01,2013-08-08 20:41:00,
2013-08-08 16:46:00,76.0,68.3,30.06,SSE,149,10.0,15.0,77,0.00,,SCT020,0.01,VWS V14.01,2013-08-08 20:46:00,
2013-08-08 16:50:00,76.2,68.5,30.06,WSW,249,3.0,15.0,77,0.00,,BKN011,0.01,VWS V14.01,2013-08-08 20:50:00,
2013-08-08 16:51:00,76.3,68.6,30.06,South,187,5.0,13.0,77,0.00,,SCT020,0.01,VWS V14.01,2013-08-08 20:51:00,
2013-08-08 16:56:00,76.0,68.3,30.06,WNW,289,4.0,15.0,77,0.00,,SCT020,0.01,VWS V14.01,2013-08-08 20:56:00,
2013-08-08 17:00:00,76.0,68.7,30.06,SW,214,6.0,15.0,78,0.00,,BKN011,0.01,VWS V14.01,2013-08-08 21:00:00,
2013-08-08 17:01:00,75.9,68.2,30.06,SSW,203,4.0,11.0,77,0.00,,CLR,0.01,VWS V14.01,2013-08-08 21:01:00,
2013-08-08 17:06:00,75.7,68.7,30.07,West,262,6.0,13.0,79,0.00,,CLR,0.01,VWS V14.01,2013-08-08 21:06:00,
2013-08-08 17:10:00,75.6,67.9,30.07,South,183,14.0,15.0,77,0.00,,BKN011,0.01,VWS V14.01,2013-08-08 21:10:00,
2013-08-08 17:11:00,75.4,68.1,30.07,SSW,208,2.0,14.0,78,0.00,,CLR,0.01,VWS V14.01,2013-08-08 21:11:00,
2013-08-08 17:16:00,75.1,68.2,30.07,SW,231,4.0,14.0,79,0.00,,CLR,0.01,VWS V14.01,2013-08-08 21:16:00,
2013-08-08 17:20:00,75.4,68.4,30.06,WSW,256,3.0,14.0,79,0.00,,BKN011,0.01,VWS V14.01,2013-08-08 21:20:00,
2013-08-08 17:21:00,75.6,68.6,30.06,WSW,239,1.0,8.0,79,0.00,,CLR,0.01,VWS V14.01,2013-08-08 21:21:00,
2013-08-08 17:27:00,75.8,68.5,30.07,SW,232,8.0,10.0,78,0.00,,CLR,0.01,VWS V14.01,2013-08-08 21:27:00,
2013-08-08 17:30:00,75.5,68.2,30.06,West,266,6.0,12.0,78,0.00,,OVC038,0.01,VWS V14.01,2013-08-08 21:30:00,
2013-08-08 17:32:00,75.3,68.0,30.06,WNW,283,3.0,10.0,78,0.00,,CLR,0.01,VWS V14.01,2013-08-08 21:32:00,
2013-08-08 17:37:00,75.1,68.2,30.06,SSE,151,6.0,12.0,79,0.00,,CLR,0.01,VWS V14.01,2013-08-08 21:37:00,
2013-08-08 17:40:00,75.0,68.1,30.06,SW,228,5.0,13.0,79,0.00,,BKN011,0.01,VWS V14.01,2013-08-08 21:40:00,
2013-08-08 17:42:00,75.0,68.1,30.06,SSW,211,7.0,9.0,79,0.00,,CLR,0.01,VWS V14.01,2013-08-08 21:42:00,
2013-08-08 17:47:00,74.9,68.3,30.06,SSE,155,3.0,10.0,80,0.00,,CLR,0.01,VWS V14.01,2013-08-08 21:47:00,
2013-08-08 17:50:00,74.9,68.3,30.06,SSE,163,9.0,10.0,80,0.00,,BKN011,0.01,VWS V14.01,2013-08-08 21:50:00,
2013-08-08 17:52:00,74.8,68.2,30.06,WSW,256,2.0,9.0,80,0.00,,CLR,0.01,VWS V14.01,2013-08-08 21:52:00,
2013-08-08 17:57:00,74.5,68.3,30.06,SW,236,10.0,11.0,81,0.00,,CLR,0.01,VWS V14.01,2013-08-08 21:57:00,
2013-08-08 18:00:00,74.2,68.0,30.06,WSW,256,3.0,11.0,81,0.00,,BKN011,0.01,VWS V14.01,2013-08-08 22:00:00,
2013-08-08 18:02:00,73.9,68.1,30.05,SSW,207,1.0,12.0,82,0.00,,FEW015,0.01,VWS V14.01,2013-08-08 22:02:00,
2013-08-08 18:07:00,73.5,68.0,30.05,SW,221,4.0,12.0,83,0.00,,FEW015,0.01,VWS V14.01,2013-08-08 22:07:00,
2013-08-08 18:10:00,73.4,68.3,30.06,South,190,5.0,12.0,84,0.00,,BKN011,0.01,VWS V14.01,2013-08-08 22:10:00,
2013-08-08 18:12:00,73.4,68.3,30.05,West,261,4.0,10.0,84,0.00,,FEW015,0.01,VWS V14.01,2013-08-08 22:12:00,
2013-08-08 18:17:00,73.4,68.3,30.05,South,188,4.0,12.0,84,0.00,,FEW015,0.01,VWS V14.01,2013-08-08 22:17:00,
2013-08-08 18:20:00,73.3,68.2,30.05,SSE,160,4.0,14.0,84,0.00,,BKN011,0.01,VWS V14.01,2013-08-08 22:20:00,
2013-08-08 18:22:00,73.2,68.4,30.06,WSW,243,8.0,11.0,85,0.00,,FEW015,0.01,VWS V14.01,2013-08-08 22:22:00,
2013-08-08 18:27:00,73.0,68.2,30.05,SW,218,8.0,11.0,85,0.00,,FEW015,0.01,VWS V14.01,2013-08-08 22:27:00,
2013-08-08 18:30:00,72.9,68.1,30.05,WSW,243,3.0,11.0,85,0.00,,BKN011,0.01,VWS V14.01,2013-08-08 22:30:00,
2013-08-08 18:32:00,72.9,68.1,30.06,South,190,6.0,7.0,85,0.00,,FEW015,0.01,VWS V14.01,2013-08-08 22:32:00,
2013-08-08 18:37:00,72.7,68.3,30.06,SW,224,9.0,12.0,86,0.00,,FEW015,0.01,VWS V14.01,2013-08-08 22:37:00,
2013-08-08 18:40:00,72.7,68.3,30.05,SSW,195,3.0,12.0,86,0.00,,BKN011,0.01,VWS V14.01,2013-08-08 22:40:00,
2013-08-08 18:43:00,72.7,68.3,30.06,SSE,162,3.0,8.0,86,0.00,,FEW015,0.01,VWS V14.01,2013-08-08 22:43:00,
2013-08-08 18:48:00,72.6,68.2,30.06,SSW,205,3.0,10.0,86,0.00,,FEW015,0.01,VWS V14.01,2013-08-08 22:48:00,
2013-08-08 18:50:00,72.6,68.2,30.06,SSE,160,4.0,10.0,86,0.00,,BKN011,0.01,VWS V14.01,2013-08-08 22:50:00,
2013-08-08 18:53:00,72.6,68.5,30.05,SW,225,4.0,8.0,87,0.00,,FEW015,0.01,VWS V14.01,2013-08-08 22:53:00,
2013-08-08 18:58:00,72.4,68.3,30.06,SW,224,2.0,13.0,87,0.00,,FEW015,0.01,VWS V14.01,2013-08-08 22:58:00,
2013-08-08 19:00:00,72.4,68.3,30.06,SSW,192,10.0,13.0,87,0.00,,BKN011,0.01,VWS V14.01,2013-08-08 23:00:00,
2013-08-08 19:03:00,72.2,68.1,30.06,West,274,2.0,11.0,87,0.00,,OVC029,0.01,VWS V14.01,2013-08-08 23:03:00,
2013-08-08 19:08:00,72.2,68.1,30.06,SSE,167,3.0,11.0,87,0.00,,OVC029,0.01,VWS V14.01,2013-08-08 23:08:00,
2013-08-08 19:10:00,72.2,68.1,30.06,SE,144,5.0,12.0,87,0.00,,BKN011,0.01,VWS V14.01,2013-08-08 23:10:00,
2013-08-08 19:13:00,72.1,68.3,30.06,SSE,158,4.0,10.0,88,0.00,,OVC029,0.01,VWS V14.01,2013-08-08 23:13:00,
2013-08-08 19:18:00,72.1,68.3,30.06,SW,222,7.0,10.0,88,0.00,,OVC029,0.01,VWS V14.01,2013-08-08 23:18:00,
2013-08-08 19:20:00,72.0,68.3,30.06,SSW,205,2.0,10.0,88,0.00,,BKN011,0.01,VWS V14.01,2013-08-08 23:20:00,
2013-08-08 19:23:00,72.0,68.3,30.07,SW,229,7.0,10.0,88,0.00,,OVC029,0.01,VWS V14.01,2013-08-08 23:23:00,
2013-08-08 19:28:00,72.0,68.3,30.06,South,189,2.0,12.0,88,0.00,,OVC029,0.01,VWS V14.01,2013-08-08 23:28:00,
2013-08-08 19:30:00,72.0,68.6,30.06,WNW,283,1.0,12.0,89,0.00,,BKN011,0.01,VWS V14.01,2013-08-08 23:30:00,
2013-08-08 19:33:00,72.0,68.6,30.07,SSW,192,5.0,7.0,89,0.00,,OVC029,0.01,VWS V14.01,2013-08-08 23:33:00,
2013-08-08 19:39:00,72.0,68.6,30.07,SSW,200,3.0,8.0,89,0.00,,OVC029,0.01,VWS V14.01,2013-08-08 23:39:00,
2013-08-08 19:40:00,72.0,68.6,30.07,South,170,4.0,8.0,89,0.00,,BKN011,0.01,VWS V14.01,2013-08-08 23:40:00,
2013-08-08 19:44:00,71.9,68.5,30.07,SW,228,5.0,6.0,89,0.00,,OVC029,0.01,VWS V14.01,2013-08-08 23:44:00,
2013-08-08 19:49:00,71.9,68.5,30.07,SSW,208,1.0,6.0,89,0.00,,OVC029,0.01,VWS V14.01,2013-08-08 23:49:00,
2013-08-08 19:50:00,71.9,68.5,30.07,South,169,1.0,6.0,89,0.00,,BKN011,0.01,VWS V14.01,2013-08-08 23:50:00,
2013-08-08 19:54:00,71.9,68.5,30.07,South,175,5.0,10.0,89,0.00,,OVC029,0.01,VWS V14.01,2013-08-08 23:54:00,
2013-08-08 19:59:00,71.9,68.5,30.07,South,191,3.0,10.0,89,0.00,,OVC029,0.01,VWS V14.01,2013-08-08 23:59:00,
2013-08-08 20:00:00,71.9,68.5,30.07,WNW,290,1.0,10.0,89,0.00,,BKN011,0.01,VWS V14.01,2013-08-09 00:00:00,
2013-08-08 20:04:00,71.9,68.5,30.07,SW,218,4.0,8.0,89,0.00,,OVC029,0.01,VWS V14.01,2013-08-09 00:04:00,
2013-08-08 20:09:00,71.9,68.5,30.07,SSW,213,8.0,9.0,89,0.00,,OVC029,0.01,VWS V14.01,2013-08-09 00:09:00,
2013-08-08 20:10:00,71.9,68.5,30.07,South,181,7.0,9.0,89,0.00,,BKN011,0.01,VWS V14.01,2013-08-09 00:10:00,
2013-08-08 20:15:00,71.9,68.5,30.07,SSW,193,4.0,9.0,89,0.00,,OVC011,0.01,VWS V14.01,2013-08-09 00:15:00,
2013-08-08 20:20:00,71.9,68.8,30.07,West,262,6.0,6.0,90,0.00,,OVC011,0.01,VWS V14.01,2013-08-09 00:20:00,
2013-08-08 20:25:00,71.9,68.8,30.07,SSW,208,4.0,10.0,90,0.00,,OVC011,0.01,VWS V14.01,2013-08-09 00:25:00,
2013-08-08 20:30:00,71.9,68.8,30.07,SE,137,3.0,4.0,90,0.00,,OVC011,0.01,VWS V14.01,2013-08-09 00:30:00,
2013-08-08 20:35:00,71.9,68.8,30.08,SW,224,4.0,7.0,90,0.00,,OVC011,0.01,VWS V14.01,2013-08-09 00:35:00,
2013-08-08 20:40:00,71.9,68.8,30.08,SW,215,3.0,4.0,90,0.00,,OVC011,0.01,VWS V14.01,2013-08-09 00:40:00,
2013-08-08 20:45:00,71.9,68.8,30.08,SSW,208,2.0,8.0,90,0.00,,OVC011,0.01,VWS V14.01,2013-08-09 00:45:00,
2013-08-08 20:50:00,71.9,68.8,30.08,SW,219,1.0,5.0,90,0.00,,OVC011,0.01,VWS V14.01,2013-08-09 00:50:00,
2013-08-08 20:55:00,71.9,68.8,30.08,SW,221,6.0,8.0,90,0.00,,OVC011,0.01,VWS V14.01,2013-08-09 00:55:00,
2013-08-08 21:00:00,71.8,69.0,30.08,SSE,165,4.0,10.0,91,0.00,,OVC024,0.01,VWS V14.01,2013-08-09 01:00:00,
2013-08-08 21:05:00,71.7,68.9,30.09,SE,143,4.0,10.0,91,0.00,,OVC024,0.01,VWS V14.01,2013-08-09 01:05:00,
2013-08-08 21:10:00,71.7,68.9,30.09,SSE,167,3.0,3.0,91,0.00,,OVC024,0.01,VWS V14.01,2013-08-09 01:10:00,
2013-08-08 21:15:00,71.6,68.8,30.09,WNW,282,1.0,4.0,91,0.00,,OVC024,0.01,VWS V14.01,2013-08-09 01:15:00,
2013-08-08 21:20:00,71.6,68.8,30.09,SW,231,3.0,5.0,91,0.00,,OVC024,0.01,VWS V14.01,2013-08-09 01:20:00,
2013-08-08 21:25:00,71.6,69.2,30.09,SSE,152,3.0,6.0,92,0.00,,OVC024,0.01,VWS V14.01,2013-08-09 01:25:00,
2013-08-08 21:30:00,71.6,69.2,30.09,SW,225,0.0,3.0,92,0.00,,OVC016,0.01,VWS V14.01,2013-08-09 01:30:00,
2013-08-08 21:35:00,71.5,69.1,30.09,SSW,201,1.0,4.0,92,0.00,,OVC016,0.01,VWS V14.01,2013-08-09 01:35:00,
2013-08-08 21:40:00,71.5,69.1,30.09,West,278,1.0,3.0,92,0.00,,OVC016,0.01,VWS V14.01,2013-08-09 01:40:00,
2013-08-08 21:45:00,71.5,69.1,30.09,SW,218,6.0,7.0,92,0.00,,OVC016,0.01,VWS V14.01,2013-08-09 01:45:00,
2013-08-08 21:50:00,71.6,69.2,30.09,WSW,242,2.0,4.0,92,0.00,,OVC008,0.01,VWS V14.01,2013-08-09 01:50:00,
2013-08-08 21:55:00,71.6,69.2,30.08,SSW,210,2.0,4.0,92,0.00,,OVC008,0.01,VWS V14.01,2013-08-09 01:55:00,
2013-08-08 22:00:00,71.6,69.2,30.08,WSW,255,4.0,4.0,92,0.00,,OVC008,0.01,VWS V14.01,2013-08-09 02:00:00,
2013-08-08 22:05:00,71.6,69.2,30.08,ESE,120,0.0,7.0,92,0.00,,OVC008,0.01,VWS V14.01,2013-08-09 02:05:00,
2013-08-08 22:10:00,71.6,69.2,30.08,SSW,197,2.0,4.0,92,0.00,,OVC008,0.01,VWS V14.01,2013-08-09 02:10:00,
2013-08-08 22:16:00,71.6,69.2,30.08,SSW,205,4.0,6.0,92,0.00,,OVC008,0.01,VWS V14.01,2013-08-09 02:16:00,
2013-08-08 22:20:00,71.6,69.2,30.08,SSE,160,1.0,6.0,92,0.00,,BKN011,0.01,VWS V14.01,2013-08-09 02:20:00,
2013-08-08 22:21:00,71.6,69.2,30.08,SW,215,3.0,3.0,92,0.00,,OVC008,0.01,VWS V14.01,2013-08-09 02:21:00,
2013-08-08 22:26:00,71.5,69.1,30.08,West,278,2.0,8.0,92,0.00,,OVC008,0.01,VWS V14.01,2013-08-09 02:26:00,
2013-08-08 22:30:00,71.5,69.1,30.08,SW,218,2.0,8.0,92,0.00,,BKN011,0.01,VWS V14.01,2013-08-09 02:30:00,
2013-08-08 22:31:00,71.4,69.0,30.08,SSW,198,5.0,11.0,92,0.00,,OVC008,0.01,VWS V14.01,2013-08-09 02:31:00,
2013-08-08 22:36:00,71.4,69.0,30.08,SSW,195,0.0,11.0,92,0.00,,OVC008,0.01,VWS V14.01,2013-08-09 02:36:00,
2013-08-08 22:40:00,71.4,69.0,30.08,SE,142,2.0,11.0,92,0.00,,BKN011,0.01,VWS V14.01,2013-08-09 02:40:00,
2013-08-08 22:41:00,71.4,69.3,30.08,SSW,194,2.0,8.0,93,0.00,,OVC008,0.01,VWS V14.01,2013-08-09 02:41:00,
2013-08-08 22:46:00,71.4,69.3,30.08,South,170,4.0,9.0,93,0.00,,OVC008,0.01,VWS V14.01,2013-08-09 02:46:00,
2013-08-08 22:50:00,71.5,69.4,30.08,ENE,66,0.0,9.0,93,0.00,,BKN011,0.01,VWS V14.01,2013-08-09 02:50:00,
2013-08-08 22:51:00,71.5,69.4,30.08,ESE,110,1.0,8.0,93,0.00,,OVC008,0.01,VWS V14.01,2013-08-09 02:51:00,
2013-08-08 22:56:00,71.5,69.4,30.08,SSW,208,4.0,8.0,93,0.00,,OVC008,0.01,VWS V14.01,2013-08-09 02:56:00,
2013-08-08 23:00:00,71.5,69.4,30.08,SSW,198,0.0,8.0,93,0.00,,BKN011,0.01,VWS V14.01,2013-08-09 03:00:00,
2013-08-08 23:02:00,71.5,69.4,30.08,SSW,192,7.0,9.0,93,0.00,,OVC008,0.01,VWS V14.01,2013-08-09 03:02:00,
2013-08-08 23:07:00,71.5,69.4,30.08,SSW,200,1.0,9.0,93,0.00,,OVC008,0.01,VWS V14.01,2013-08-09 03:07:00,
2013-08-08 23:10:00,71.6,69.8,30.08,South,169,2.0,9.0,94,0.00,,BKN011,0.01,VWS V14.01,2013-08-09 03:10:00,
2013-08-08 23:12:00,71.6,69.8,30.08,SSW,208,0.0,4.0,94,0.00,,OVC008,0.01,VWS V14.01,2013-08-09 03:12:00,
2013-08-08 23:17:00,71.6,69.8,30.08,South,181,5.0,5.0,94,0.00,,OVC008,0.01,VWS V14.01,2013-08-09 03:17:00,
2013-08-08 23:20:00,71.6,69.8,30.08,SW,217,4.0,7.0,94,0.00,,BKN011,0.01,VWS V14.01,2013-08-09 03:20:00,
2013-08-08 23:22:00,71.6,69.8,30.08,SW,218,6.0,10.0,94,0.00,,OVC008,0.01,VWS V14.01,2013-08-09 03:22:00,
2013-08-08 23:27:00,71.7,69.9,30.08,South,170,3.0,10.0,94,0.00,,OVC008,0.01,VWS V14.01,2013-08-09 03:27:00,
2013-08-08 23:30:00,71.8,70.0,30.08,SSW,205,2.0,10.0,94,0.00,,BKN011,0.01,VWS V14.01,2013-08-09 03:30:00,
2013-08-08 23:32:00,71.8,70.0,30.08,SSE,154,3.0,7.0,94,0.00,,OVC008,0.01,VWS V14.01,2013-08-09 03:32:00,
2013-08-08 23:37:00,71.8,70.0,30.08,WSW,245,3.0,8.0,94,0.00,,OVC008,0.01,VWS V14.01,2013-08-09 03:37:00,
2013-08-08 23:40:00,71.9,70.1,30.08,South,184,4.0,8.0,94,0.00,,BKN011,0.01,VWS V14.01,2013-08-09 03:40:00,
2013-08-08 23:42:00,71.9,70.1,30.08,SSW,203,2.0,6.0,94,0.00,,OVC008,0.01,VWS V14.01,2013-08-09 03:42:00,
2013-08-08 23:47:00,72.0,70.2,30.08,SSE,156,3.0,8.0,94,0.00,,OVC008,0.01,VWS V14.01,2013-08-09 03:47:00,
2013-08-08 23:50:00,72.0,70.2,30.08,SW,215,4.0,8.0,94,0.00,,BKN011,0.01,VWS V14.01,2013-08-09 03:50:00,
2013-08-08 23:52:00,72.0,70.2,30.08,West,276,1.0,9.0,94,0.00,,OVC008,0.01,VWS V14.01,2013-08-09 03:52:00,
2013-08-08 23:57:00,72.1,70.3,30.08,SSW,210,3.0,9.0,94,0.00,,OVC008,0.01,VWS V14.01,2013-08-09 03:57:00,